Location: Colebrook
(42.0017°N, 73.0973°W)
Time: 09:58:05
(UTC-04:00)

X-37B - Visible Passes

Search period start: 06 October 2022 00:00
Search period end: 16 October 2022 00:00
Orbit: 329 x 342 km, 45.0° (Epoch: 29 September)

Date Brightness Start Highest point End Pass type
(mag) Time Alt. Az. Time Alt. Az. Time Alt. Az.
06 Oct 1.7 05:43:09 23° SW 05:43:15 23° SSW 05:45:37 10° SSE visible
13 Oct 3.0 19:41:24 10° S 19:41:42 11° S 19:41:42 11° S visible
14 Oct 2.7 20:00:45 10° SW 20:01:41 18° SSW 20:01:41 18° SSW visible
15 Oct 2.4 18:46:52 10° S 18:48:36 15° SE 18:50:18 10° ESE visible
15 Oct 3.3 20:20:56 10° WSW 20:21:33 15° WSW 20:21:33 15° WSW visible
